BEIDOU-3 IGSO-3 (C40)

Last updated on Mon Oct 20 2025 00:03:25 GMT+0000 (Coordinated Universal Time)

1 44709U 19073A 25291.38417131 -.00000184 00000+0 00000+0 0 9993 2 44709 55.2192 283.5123 0045202 192.0725 167.7824 1.00260452 22035
UTC large
Height (km)
Speed (km/s)
/
Latitude / Longitude
Inclination (degrees)
Orbital Period (minutes)
Azimuth
Elevation
Range (km)
Doppler Factor

Next 0 passes for location: London (51.5072 / 0.1276)

Sorry there are no passes over London.